Regional Weather Roundup
Issued by NWS

Home | Current Version | Previous Version | Graphics & Text | Print | Product List | Glossary On
Versions: 1 2 3 4 5 6 7 8 9 10 11 12 13 14 15 16 17 18 19 20 21 22 23 24 25 26 27 28 29 30 31 32 33 34 35 36 37 38 39 40 41 42 43 44 45 46 47 48 49 50
000
ASUS43 KFSD 241302
RWRSD

WEATHER ROUNDUP FOR SOUTH DAKOTA
NATIONAL WEATHER SERVICE SIOUX FALLS SD
700 AM CST TUE JAN 24 2017

NOTE: "FAIR" INDICATES FEW OR NO CLOUDS BELOW 12,000 FEET WITH NO
SIGNIFICANT WEATHER AND/OR OBSTRUCTIONS TO VISIBILITY.


SDZ001>005-009-010-012>017-241400-
NORTHWEST AND NORTH CENTRAL SOUTH DAKOTA

CITY           SKY/WX    TMP DP  RH WIND       PRES   REMARKS
BUFFALO          N/A     24  20  84 N12       29.71S WCI  13
FAITH            N/A     24  22  91 N16       29.77R WCI  11
MOBRIDGE       CLOUDY    28  22  78 N14       29.79S WCI  17
$$

SDZ012>016-024>037-041>051-057-063-072>074-241400-
SOUTHWEST AND SOUTH CENTRAL SOUTH DAKOTA

CITY           SKY/WX    TMP DP  RH WIND       PRES   REMARKS
RAPID CTY ARPT LGT SNOW  21  20  96 N16G26    29.73R FOG     WCI   7
PIERRE         FOG       28  27  96 NE15      29.76R VSB 1/2 WCI  16
CUSTER         LGT SNOW  20  17  88 CALM      29.57R FOG
ELLSWORTH AFB  LGT SNOW  21  21 100 VRB6      29.73  VSB 5/8 WCI  14
PINE RIDGE     LGT SNOW  24  22  91 N9        29.67R VSB 3/4 WCI  14
SPEARFISH      SNOW      16  16 100 W3        29.75R VSB 1/2
WINNER         FOG       31  29  92 E10       29.71S VSB 1/2 WCI  22
$$

SDZ004>011-016>023-039-040-241400-
NORTHEAST SOUTH DAKOTA

CITY           SKY/WX    TMP DP  RH WIND       PRES   REMARKS
ABERDEEN       LGT SNOW  28  25  88 NE9       29.85S FOG     WCI  19
WATERTOWN      CLOUDY    28  26  92 E9        29.82R WCI  19
BROOKINGS      CLOUDY    29  28  96 E10       29.80F WCI  20
SISSETON         N/A     31  29  92 NE7       29.87R WCI  24
$$

SDZ017-020-022-023-036>040-048>070-241400-
SOUTHEAST SOUTH DAKOTA

CITY           SKY/WX    TMP DP  RH WIND       PRES   REMARKS
SIOUX FALLS    CLOUDY    32  29  88 E13       29.80S WCI  22
HURON          CLOUDY    30  29  96 E9        29.80S WCI  22
CHAMBERLAIN    CLOUDY    31  31 100 E7        29.75S FOG     WCI  25
MITCHELL       CLOUDY    32  30  92 E9        29.79S WCI  24
YANKTON        CLOUDY    30  27  86 E12       29.76S WCI  21
$$

ABBREVIATIONS USED IN REMARKS
   TC - TEMPERATURE IN CELSIUS
  WCI - WIND CHILL INDEX
   HX - HEAT INDEX
  VSB - VISIBILITY




USA.gov is the U.S. government's official web portal to all federal, state and local government web resources and services.